Regional Weather Roundup
Issued by NWS

Home | Current Version | Previous Version | Graphics & Text | Print | Product List | Glossary On
Versions: 1 2 3 4 5 6 7 8 9 10 11 12 13 14 15 16 17 18 19 20 21 22 23 24 25 26 27 28 29 30 31 32 33 34 35 36 37 38 39 40 41 42 43 44 45 46 47 48 49 50
000
ASUS45 KTFX 261604
RWRMT
MONTANA HOURLY WEATHER ROUNDUP
NATIONAL WEATHER SERVICE GREAT FALLS MT
904 AM MST MON JAN 26 2015

NOTE: "FAIR" INDICATES FEW OR NO CLOUDS BELOW 12000 FEET WITH NO
SIGNIFICANT WEATHER AND/OR OBSTRUCTIONS TO VISIBILITY.

* THESE STATIONS ARE NOT UNDER NWS QUALITY CONTROL. THEY DO NOT
   REPORT WEATHER SUCH AS PRECIPITATION OR FOG.

MTZ001>007-043-261700-
WEST OF THE DIVIDE
CITY           SKY/WX    TMP DP  RH WIND       PRES   REMARKS
KALISPELL      FOG       23  23 100 CALM      30.10F VSB M1/4
MISSOULA       PTCLDY    27  27 100 CALM      30.20S
BUTTE          SUNNY     25  21  85 CALM      30.24S
MULLAN PASS    PTSUNNY   43  27  53 S8        30.14F
* ANACONDA     PTCLDY    45  27  49 S13G24     N/A
* ESSEX        N/A       25  24  96 N/A        N/A
* LINCOLN      N/A       19  18  96 N/A        N/A
* LOOKOUT PASS N/A       36  32  85 S2         N/A
* POLSON       N/A       37  30  76 S1         N/A
* RONAN APT    PTCLDY    32  32 100 N/A        N/A
* SEELEY LAKE  N/A       20  18  92 NE1        N/A
* THOMP F APT  PTCLDY    31  29  92 NE3        N/A
$$

MTZ008-052>055-261700-
SOUTHWEST MONTANA
CITY           SKY/WX    TMP DP  RH WIND       PRES   REMARKS
BOZEMAN        PTCLDY    32  28  85 S5        30.23S WCI  27
DILLON         PTCLDY    37  28  70 SW17      30.27S WCI  27
* W YELLOWSTON SUNNY     28  27  96 N/A        N/A
* THREE FORKS  PTSUNNY   30  30 100 N/A        N/A
* BOULDER HILL N/A       45  23  42 SW10G16    N/A
* MONIDA PASS  N/A       30  30 100 SE14       N/A   WCI  19
* RAYNOLDS PAS N/A       27   9  46 SE18       N/A   WCI  14
* WHITEHALL    N/A       33  28  82 NW7        N/A   WCI  27
* WISE RIVER   N/A       23  20  88 W5         N/A   WCI  16
$$

MTZ009>010-012-014-046-048-049-054-261700-
EAST SLOPES AND CENTRAL MONTANA
CITY           SKY/WX    TMP DP  RH WIND       PRES   REMARKS
CUT BANK       PTSUNNY   48  27  44 W21       29.98S
GREAT FALLS    PTSUNNY   55  27  34 SW23G30   30.02S
HELENA         PTCLDY    34  27  76 SW5       30.19R WCI  29
MALMSTROM AFB  CLOUDY    52  30  43 SW23      30.03S
* DEARBORN     N/A       49  28  44 SW12       N/A
* EAST GLACIER N/A       46  23  40 W13        N/A
* MONARCH      N/A       51  20  29 S4         N/A
* PENDROY      N/A       47  28  48 SW13       N/A
* ROGERS PASS  N/A       43  25  49 E6         N/A
* SWEET GRASS  N/A       50  24  36 SW25       N/A
$$

MTZ011-013-016-021-035-040-045-047-050-051-261700-
NORTH CENTRAL MONTANA
CITY           SKY/WX    TMP DP  RH WIND       PRES   REMARKS
HAVRE          CLOUDY    46  32  58 SW23      29.95S
LEWISTOWN      PTSUNNY   50  28  43 W6        30.05F
* N BAR RANCH  SUNNY     45  28  51 NW5       30.08R
* CHESTER      N/A       33  28  82 N/A        N/A
* DENTON       N/A       43  29  58 S5         N/A
* GEYSER       N/A       59  24  26 SW22G29    N/A
* JUDITH GAP   N/A       52  29  41 W8         N/A
* LOMA         N/A       49  31  50 SW12G18    N/A
$$

MTZ017>020-022>027-061-062-261700-
NORTHEAST MONTANA
CITY           SKY/WX    TMP DP  RH WIND       PRES   REMARKS
GLASGOW        PTCLDY    36  30  79 CALM      29.97S
GLENDIVE       PTSUNNY   39  34  82 SW5       30.00S WCI  35
JORDAN         CLOUDY    37  32  82 W10       29.99S WCI  30
SIDNEY         SUNNY     34  30  85 CALM      30.00R
WOLF POINT     SUNNY     34  30  85 CALM      30.00R
* BEAVER HILL  N/A       40  32  73 W11        N/A   WCI  33
* CIRCLE       N/A       34  31  89 N/A        N/A
* LINDSAY DVD  N/A       44  32  63 W15        N/A
* NAVAJO       N/A       39  28  65 W9         N/A   WCI  33
* SACO         N/A       29  27  92 NE1        N/A
$$

MTZ028>042-056>058-261700-
SOUTHCENTRAL AND SOUTHEAST MONTANA
CITY           SKY/WX    TMP DP  RH WIND       PRES   REMARKS
BAKER          PTSUNNY   37  30  76 CALM      30.00F
BILLINGS       PTSUNNY   45  28  51 SW16      30.10R
LIVINGSTON     PTCLDY    55  25  31 SW30G40   30.13S
MILES CITY     PTCLDY    39  32  76 W10       30.02S WCI  32
* LAUREL APT   CLOUDY    46  28  50 SW11G17    N/A
* ROUNDUP APT  PTSUNNY   50  28  43 N/A        N/A
* ALZADA       N/A       43  30  60 W4         N/A
* HYSHAM       N/A       47  26  44 W6         N/A
* LAME DEER    N/A       49  28  44 W11G19     N/A
* REED POINT   N/A       41  30  65 SE6        N/A
* ROSCOE HILL  N/A       55  15  20 S4         N/A
$$

REGIONAL REPORTS...DAKOTAS
CITY           SKY/WX    TMP DP  RH WIND       PRES   REMARKS
WILLISTON      SUNNY     39  30  70 W5        29.96S WCI  35
DICKINSON      SUNNY     37  32  82 W12       29.95R WCI  29
CROSBY         SUNNY     37  32  82 W12       29.93S WCI  29
WATFORD CITY   SUNNY     36  32  85 SW7       29.95S WCI  30
BISMARCK       SUNNY     41  32  70 NW9       29.93R
GRAND FORKS    PTCLDY    39  30  70 NW18G24   29.74R WCI  30
FARGO          PTCLDY    39  30  70 NW14      29.75R WCI  31
BUFFALO SD     PTCLDY    46  32  58 W10       29.93S
RAPID CITY     SUNNY     57  28  33 NW5       30.05R
$$

REGIONAL REPORTS...WYOMING/IDAHO/WASHINGTON
CITY           SKY/WX    TMP DP  RH WIND       PRES   REMARKS
GILLETTE       SUNNY     52  28  40 W10       30.12S
SHERIDAN       PTCLDY    46  28  50 NE3       30.10F
CODY           PTCLDY    39  32  76 CALM      30.19F
YELLOWSTONE LA PTCLDY    12  10  92 CALM      30.47S
SALMON         CLOUDY    23  21  92 CALM      30.39F VSB M1/4
MULLAN PASS    PTSUNNY   43  27  53 S8        30.14S
SAND POINT     FOG       34  34 100 CALM      30.12F VSB M1/4
SPOKANE        FOG       36  36 100 E6        30.06F VSB M1/4 WCI  31

$$



USA.gov is the U.S. government's official web portal to all federal, state and local government web resources and services.